| time (UTC) | temp F | wind direction | speed knots | gust knots | rain 1hr in | rain 24hr in | rain mn in | humidity % | barometer mb |
| 20260506004448 | 73 | 283 | 1.7 | 3.5 | 0.00 | 0.04 | 0.04 | 45 | 1009.2 |
| 20260506003943 | 73 | 278 | 3.5 | 3.5 | 0.00 | 0.04 | 0.04 | 46 | 1009.2 |
| 20260506003441 | 73 | 312 | 2.6 | 4.3 | 0.00 | 0.04 | 0.04 | 45 | 1009.4 |
| 20260506002937 | 73 | 304 | 3.5 | 3.5 | 0.00 | 0.04 | 0.04 | 45 | 1009.2 |
| 20260506002433 | 73 | 310 | 2.6 | 3.5 | 0.00 | 0.04 | 0.04 | 45 | 1009.2 |
| 20260506001928 | 73 | 335 | 2.6 | 4.3 | 0.00 | 0.04 | 0.04 | 45 | 1009.2 |
| 20260506001426 | 73 | 322 | 0.0 | 4.3 | 0.00 | 0.04 | 0.04 | 45 | 1009.1 |
| 20260506000923 | 74 | 287 | 3.5 | 4.3 | 0.00 | 0.04 | 0.04 | 45 | 1009.1 |
| 20260506000423 | 74 | 303 | 3.5 | 6.1 | 0.00 | 0.04 | 0.04 | 44 | 1009.0 |
| 20260505235918 | 74 | 278 | 4.3 | 6.1 | 0.00 | 0.04 | 0.04 | 44 | 1008.9 |
| 20260505235416 | 74 | 282 | 4.3 | 4.3 | 0.00 | 0.04 | 0.04 | 43 | 1008.9 |
| 20260505234912 | 75 | 291 | 3.5 | 6.1 | 0.00 | 0.04 | 0.04 | 43 | 1009.1 |
| 20260505234410 | 75 | 304 | 4.3 | 9.6 | 0.00 | 0.04 | 0.04 | 42 | 1008.9 |
| 20260505233906 | 75 | 312 | 3.5 | 4.3 | 0.00 | 0.04 | 0.04 | 43 | 1009.0 |
| 20260505233404 | 75 | 293 | 3.5 | 4.3 | 0.00 | 0.04 | 0.04 | 42 | 1008.8 |
| 20260505232901 | 76 | 300 | 1.7 | 4.3 | 0.00 | 0.04 | 0.04 | 41 | 1008.7 |
| 20260505232359 | 76 | 318 | 7.0 | 9.6 | 0.00 | 0.04 | 0.04 | 40 | 1008.6 |
| 20260505231855 | 76 | 297 | 3.5 | 6.1 | 0.00 | 0.04 | 0.04 | 40 | 1008.7 |
| 20260505231353 | 76 | 278 | 7.0 | 8.7 | 0.00 | 0.04 | 0.04 | 40 | 1008.6 |
| 20260505230851 | 77 | 337 | 3.5 | 7.0 | 0.00 | 0.04 | 0.04 | 40 | 1008.8 |
| 20260505230348 | 77 | 286 | 5.2 | 7.0 | 0.00 | 0.04 | 0.04 | 40 | 1008.6 |
| 20260505225845 | 77 | 271 | 6.1 | 7.0 | 0.00 | 0.04 | 0.04 | 39 | 1008.6 |
| 20260505225342 | 77 | 286 | 5.2 | 7.0 | 0.00 | 0.04 | 0.04 | 40 | 1008.5 |
| 20260505224837 | 77 | 268 | 4.3 | 7.0 | 0.00 | 0.04 | 0.04 | 40 | 1008.6 |
| 20260505224335 | 77 | 293 | 6.1 | 9.6 | 0.00 | 0.04 | 0.04 | 39 | 1008.6 |
| 20260505223832 | 77 | 299 | 5.2 | 8.7 | 0.00 | 0.04 | 0.04 | 39 | 1008.5 |
| 20260505223329 | 78 | 273 | 4.3 | 7.0 | 0.00 | 0.04 | 0.04 | 40 | 1008.5 |
| 20260505222825 | 78 | 268 | 7.8 | 9.6 | 0.00 | 0.04 | 0.04 | 39 | 1008.4 |
| 20260505222321 | 79 | 285 | 6.1 | 9.6 | 0.00 | 0.04 | 0.04 | 39 | 1008.3 |
| 20260505221818 | 78 | 285 | 4.3 | 8.7 | 0.00 | 0.04 | 0.04 | 39 | 1008.4 |
| 20260505221315 | 78 | 265 | 5.2 | 8.7 | 0.00 | 0.04 | 0.04 | 40 | 1008.6 |
| 20260505220812 | 79 | 278 | 5.2 | 9.6 | 0.00 | 0.04 | 0.04 | 39 | 1008.5 |
| 20260505220309 | 79 | 283 | 6.1 | 7.0 | 0.00 | 0.04 | 0.04 | 38 | 1008.2 |
| 20260505215807 | 80 | 311 | 4.3 | 9.6 | 0.00 | 0.04 | 0.04 | 38 | 1008.3 |
| 20260505215305 | 80 | 277 | 6.1 | 7.0 | 0.00 | 0.04 | 0.04 | 38 | 1008.3 |
| 20260505214802 | 80 | 263 | 8.7 | 10.4 | 0.00 | 0.04 | 0.04 | 38 | 1008.4 |
| 20260505214300 | 80 | 268 | 7.0 | 8.7 | 0.00 | 0.04 | 0.04 | 38 | 1008.4 |
| 20260505213756 | 80 | 301 | 5.2 | 9.6 | 0.00 | 0.04 | 0.04 | 38 | 1008.4 |
| 20260505213254 | 80 | 271 | 6.1 | 9.6 | 0.00 | 0.04 | 0.04 | 38 | 1008.5 |
| 20260505212749 | 80 | 201 | 5.2 | 7.0 | 0.00 | 0.04 | 0.04 | 38 | 1008.5 |
| 20260505212247 | 80 | 287 | 4.3 | 9.6 | 0.00 | 0.04 | 0.04 | 38 | 1008.3 |
| 20260505211744 | 80 | 287 | 7.0 | 9.6 | 0.00 | 0.04 | 0.04 | 37 | 1008.4 |
| 20260505211242 | 80 | 281 | 7.0 | 8.7 | 0.00 | 0.04 | 0.04 | 38 | 1008.3 |
| 20260505210738 | 80 | 273 | 5.2 | 9.6 | 0.00 | 0.04 | 0.04 | 38 | 1008.4 |
| 20260505210235 | 80 | 270 | 5.2 | 7.0 | 0.00 | 0.04 | 0.04 | 37 | 1008.2 |
| 20260505205732 | 80 | 270 | 7.8 | 10.4 | 0.00 | 0.04 | 0.04 | 38 | 1008.3 |
| 20260505205230 | 80 | 277 | 7.0 | 13.0 | 0.00 | 0.04 | 0.04 | 38 | 1008.4 |
| 20260505204726 | 80 | 279 | 7.0 | 9.6 | 0.00 | 0.04 | 0.04 | 38 | 1008.2 |
| 20260505204224 | 80 | 265 | 7.0 | 9.6 | 0.00 | 0.04 | 0.04 | 38 | 1008.1 |
| 20260505203721 | 81 | 269 | 7.0 | 8.7 | 0.00 | 0.04 | 0.04 | 37 | 1008.4 |
| 20260505203218 | 81 | 290 | 6.1 | 10.4 | 0.00 | 0.04 | 0.04 | 38 | 1008.5 |
| 20260505202714 | 80 | 263 | 2.6 | 9.6 | 0.00 | 0.04 | 0.04 | 38 | 1008.2 |
| 20260505202210 | 81 | 287 | 4.3 | 7.0 | 0.00 | 0.04 | 0.04 | 38 | 1008.3 |
| 20260505201707 | 80 | 288 | 10.4 | 12.2 | 0.00 | 0.04 | 0.04 | 37 | 1008.2 |
| 20260505201205 | 81 | 273 | 7.8 | 13.0 | 0.00 | 0.04 | 0.04 | 38 | 1008.4 |
| 20260505200703 | 81 | 261 | 7.8 | 12.2 | 0.00 | 0.04 | 0.04 | 37 | 1008.4 |
| 20260505200159 | 80 | 286 | 7.8 | 8.7 | 0.00 | 0.04 | 0.04 | 39 | 1008.3 |
| 20260505195655 | 79 | 292 | 6.1 | 8.7 | 0.00 | 0.04 | 0.04 | 40 | 1008.6 |
| 20260505195152 | 79 | 285 | 5.2 | 6.1 | 0.00 | 0.04 | 0.04 | 40 | 1008.5 |
| 20260505194649 | 81 | 272 | 8.7 | 12.2 | 0.00 | 0.04 | 0.04 | 39 | 1008.6 |
| 20260505194145 | 82 | 280 | 11.3 | 13.0 | 0.00 | 0.04 | 0.04 | 39 | 1008.8 |
| 20260505193642 | 81 | 281 | 4.3 | 9.6 | 0.00 | 0.04 | 0.04 | 39 | 1008.4 |
| 20260505193139 | 79 | 262 | 5.2 | 8.7 | 0.00 | 0.04 | 0.04 | 43 | 1008.5 |
| 20260505192638 | 82 | 245 | 9.6 | 12.2 | 0.00 | 0.04 | 0.04 | 40 | 1008.5 |
| 20260505192135 | 81 | 264 | 5.2 | 7.0 | 0.00 | 0.04 | 0.04 | 38 | 1008.8 |
| 20260505191633 | 81 | 281 | 7.8 | 9.6 | 0.00 | 0.04 | 0.04 | 37 | 1008.9 |
| 20260505191131 | 82 | 288 | 7.8 | 10.4 | 0.00 | 0.04 | 0.04 | 35 | 1008.8 |
| 20260505190627 | 81 | 262 | 7.8 | 13.0 | 0.00 | 0.04 | 0.04 | 34 | 1008.8 |
| 20260505190121 | 80 | 273 | 6.1 | 9.6 | 0.00 | 0.04 | 0.04 | 35 | 1008.7 |
| 20260505185619 | 81 | 274 | 5.2 | 10.4 | 0.00 | 0.04 | 0.04 | 35 | 1009.0 |
| 20260505185115 | 82 | 283 | 5.2 | 10.4 | 0.00 | 0.04 | 0.04 | 34 | 1008.8 |
| 20260505184611 | 81 | 281 | 4.3 | 6.1 | 0.00 | 0.04 | 0.04 | 35 | 1009.1 |
| 20260505184108 | 80 | 289 | 10.4 | 15.6 | 0.00 | 0.04 | 0.04 | 35 | 1009.3 |
| 20260505183605 | 81 | 257 | 9.6 | 15.6 | 0.00 | 0.04 | 0.04 | 35 | 1009.1 |
| 20260505183103 | 80 | 287 | 8.7 | 10.4 | 0.00 | 0.04 | 0.04 | 35 | 1009.2 |
| 20260505182559 | 80 | 271 | 7.8 | 9.6 | 0.00 | 0.04 | 0.04 | 35 | 1009.4 |
| 20260505182056 | 80 | 287 | 7.8 | 12.2 | 0.00 | 0.04 | 0.04 | 36 | 1009.4 |
| 20260505181552 | 80 | 261 | 5.2 | 9.6 | 0.00 | 0.04 | 0.04 | 38 | 1009.3 |
| 20260505181050 | 79 | 277 | 6.1 | 7.0 | 0.00 | 0.04 | 0.04 | 38 | 1009.3 |
| 20260505180545 | 79 | 279 | 9.6 | 13.0 | 0.00 | 0.04 | 0.04 | 38 | 1009.4 |
| 20260505180044 | 79 | 279 | 6.1 | 9.6 | 0.00 | 0.04 | 0.04 | 38 | 1009.5 |
| 20260505175543 | 79 | 264 | 5.2 | 9.6 | 0.00 | 0.04 | 0.04 | 38 | 1009.5 |
| 20260505175040 | 79 | 283 | 7.0 | 10.4 | 0.00 | 0.04 | 0.04 | 37 | 1009.7 |
| 20260505174537 | 79 | 276 | 8.7 | 12.2 | 0.00 | 0.04 | 0.04 | 38 | 1010.2 |
| 20260505174033 | 79 | 268 | 11.3 | 13.9 | 0.00 | 0.04 | 0.04 | 38 | 1010.1 |
| 20260505173530 | 79 | 299 | 4.3 | 9.6 | 0.00 | 0.04 | 0.04 | 39 | 1009.8 |
| 20260505173027 | 79 | 278 | 6.1 | 10.4 | 0.00 | 0.04 | 0.04 | 40 | 1010.0 |
| 20260505172525 | 79 | 308 | 7.8 | 10.4 | 0.00 | 0.04 | 0.04 | 40 | 1010.0 |
| 20260505172020 | 78 | 283 | 7.8 | 9.6 | 0.00 | 0.04 | 0.04 | 41 | 1010.0 |
| 20260505171516 | 78 | 258 | 5.2 | 8.7 | 0.00 | 0.04 | 0.04 | 43 | 1009.8 |
| 20260505171013 | 79 | 282 | 5.2 | 7.0 | 0.00 | 0.04 | 0.04 | 42 | 1010.1 |
| 20260505170510 | 78 | 276 | 8.7 | 12.2 | 0.00 | 0.04 | 0.04 | 42 | 1010.1 |
| 20260505170006 | 78 | 284 | 9.6 | 12.2 | 0.00 | 0.04 | 0.04 | 43 | 1010.1 |
| 20260505165501 | 79 | 289 | 5.2 | 7.0 | 0.00 | 0.04 | 0.04 | 43 | 1010.2 |
| 20260505164957 | 78 | 288 | 4.3 | 9.6 | 0.00 | 0.04 | 0.04 | 44 | 1010.4 |
| 20260505164454 | 78 | 288 | 5.2 | 7.0 | 0.00 | 0.04 | 0.04 | 46 | 1010.3 |
| 20260505163952 | 77 | 263 | 5.2 | 7.0 | 0.00 | 0.04 | 0.04 | 45 | 1010.4 |
| 20260505163450 | 78 | 293 | 7.0 | 9.6 | 0.00 | 0.04 | 0.04 | 44 | 1010.6 |
| 20260505162949 | 77 | 283 | 6.1 | 7.0 | 0.00 | 0.04 | 0.04 | 45 | 1010.6 |
| 20260505162445 | 77 | 267 | 4.3 | 6.1 | 0.00 | 0.04 | 0.04 | 48 | 1010.8 |
| 20260505161941 | 77 | 284 | 5.2 | 9.6 | 0.00 | 0.04 | 0.04 | 48 | 1010.9 |
| 20260505161438 | 75 | 266 | 7.0 | 9.6 | 0.00 | 0.04 | 0.04 | 49 | 1010.7 |
| 20260505160936 | 75 | 264 | 6.1 | 10.4 | 0.00 | 0.04 | 0.04 | 48 | 1010.8 |
| 20260505160434 | 75 | 294 | 7.8 | 9.6 | 0.00 | 0.04 | 0.04 | 48 | 1010.7 |
| 20260505152910 | 73 | 266 | 5.2 | 7.0 | 0.00 | 0.04 | 0.04 | 51 | 1011.2 |
| 20260505152407 | 73 | 290 | 6.1 | 10.4 | 0.00 | 0.04 | 0.04 | 53 | 1011.3 |
| 20260505151901 | 73 | 300 | 7.8 | 9.6 | 0.00 | 0.04 | 0.04 | 52 | 1011.1 |
| 20260505151358 | 73 | 289 | 7.8 | 8.7 | 0.00 | 0.04 | 0.04 | 54 | 1011.2 |
| 20260505150855 | 73 | 290 | 6.1 | 8.7 | 0.00 | 0.04 | 0.04 | 53 | 1011.4 |
| 20260505150352 | 73 | 300 | 5.2 | 7.0 | 0.00 | 0.04 | 0.04 | 56 | 1011.5 |
| 20260505140316 | 69 | 269 | 1.7 | 4.3 | 0.00 | 0.04 | 0.04 | 60 | 1011.7 |
| 20260505130240 | 65 | 274 | 3.5 | 4.3 | 0.00 | 0.04 | 0.04 | 65 | 1011.8 |
| 20260505124731 | 64 | 268 | 2.6 | 3.5 | 0.00 | 0.04 | 0.04 | 66 | 1011.9 |
| 20260505124227 | 64 | 269 | 2.6 | 3.5 | 0.00 | 0.04 | 0.04 | 67 | 1011.9 |
| 20260505123722 | 64 | 270 | 2.6 | 3.5 | 0.00 | 0.04 | 0.04 | 67 | 1011.8 |
| 20260505123220 | 63 | 263 | 4.3 | 6.1 | 0.00 | 0.04 | 0.04 | 68 | 1011.8 |
| 20260505122716 | 63 | 267 | 4.3 | 4.3 | 0.00 | 0.04 | 0.04 | 68 | 1011.6 |
| 20260505122214 | 63 | 262 | 3.5 | 4.3 | 0.00 | 0.04 | 0.04 | 68 | 1011.7 |
| 20260505121710 | 62 | 257 | 3.5 | 3.5 | 0.00 | 0.04 | 0.04 | 70 | 1011.7 |
| 20260505121207 | 62 | 281 | 1.7 | 3.5 | 0.00 | 0.04 | 0.04 | 74 | 1011.7 |
| 20260505120703 | 62 | 281 | 0.0 | 0.9 | 0.00 | 0.04 | 0.04 | 75 | 1011.5 |
| 20260505120159 | 60 | 281 | 0.9 | 0.9 | 0.00 | 0.04 | 0.04 | 76 | 1011.6 |
| 20260505115652 | 60 | 278 | 0.9 | 0.9 | 0.00 | 0.04 | 0.04 | 78 | 1011.6 |
| 20260505115151 | 60 | 281 | 0.0 | 0.9 | 0.00 | 0.04 | 0.04 | 79 | 1011.6 |
| 20260505114647 | 60 | 281 | 0.9 | 2.6 | 0.00 | 0.04 | 0.04 | 80 | 1011.6 |
| 20260505114143 | 59 | 282 | 2.6 | 2.6 | 0.00 | 0.04 | 0.04 | 78 | 1011.6 |
| 20260505113635 | 62 | 249 | 0.9 | 2.6 | 0.00 | 0.04 | 0.04 | 77 | 1011.7 |
| 20260505113132 | 61 | 206 | 0.0 | 0.0 | 0.00 | 0.04 | 0.04 | 82 | 1011.5 |
| 20260505112628 | 60 | 206 | 0.0 | 0.0 | 0.00 | 0.04 | 0.04 | 84 | 1011.5 |
| 20260505112126 | 60 | 206 | 0.0 | 0.0 | 0.00 | 0.04 | 0.04 | 81 | 1011.4 |
| 20260505111620 | 58 | 206 | 0.0 | 0.0 | 0.00 | 0.04 | 0.04 | 83 | 1011.6 |
| 20260505111116 | 57 | 206 | 0.0 | 0.0 | 0.00 | 0.04 | 0.04 | 87 | 1011.2 |
| 20260505110612 | 57 | 206 | 0.9 | 0.9 | 0.00 | 0.04 | 0.04 | 86 | 1011.2 |
| 20260505110109 | 57 | 206 | 0.0 | 0.0 | 0.00 | 0.04 | 0.04 | 84 | 1011.3 |
| 20260505102045 | 52 | 210 | 0.0 | 0.9 | 0.00 | 0.04 | 0.04 | 91 | 1011.1 |
| 20260505101543 | 53 | 210 | 0.0 | 0.9 | 0.00 | 0.04 | 0.04 | 88 | 1011.2 |
| 20260505101039 | 54 | 209 | 0.0 | 0.9 | 0.00 | 0.04 | 0.04 | 87 | 1011.0 |
| 20260505100536 | 54 | 210 | 0.9 | 0.9 | 0.00 | 0.04 | 0.04 | 86 | 1011.0 |
| 20260505100033 | 54 | 210 | 0.0 | 0.0 | 0.00 | 0.04 | 0.04 | 87 | 1010.9 |
| 20260505095529 | 55 | 210 | 0.0 | 0.9 | 0.00 | 0.04 | 0.04 | 86 | 1010.8 |
| 20260505095026 | 55 | 210 | 0.0 | 0.0 | 0.00 | 0.04 | 0.04 | 84 | 1010.8 |
| 20260505094522 | 55 | 210 | 0.0 | 0.9 | 0.00 | 0.04 | 0.04 | 84 | 1010.9 |
| 20260505094019 | 55 | 210 | 0.0 | 0.9 | 0.00 | 0.04 | 0.04 | 85 | 1010.8 |
| 20260505093515 | 55 | 210 | 0.0 | 0.9 | 0.00 | 0.04 | 0.04 | 85 | 1010.8 |
| 20260505093013 | 55 | 209 | 0.9 | 2.6 | 0.00 | 0.04 | 0.04 | 85 | 1010.7 |
| 20260505092510 | 55 | 210 | 0.0 | 2.6 | 0.00 | 0.04 | 0.04 | 84 | 1010.7 |
| 20260505092008 | 55 | 192 | 0.9 | 2.6 | 0.00 | 0.04 | 0.04 | 84 | 1010.6 |
| 20260505091505 | 55 | 193 | 1.7 | 2.6 | 0.00 | 0.04 | 0.04 | 84 | 1010.7 |
| 20260505091003 | 55 | 210 | 0.0 | 2.6 | 0.00 | 0.04 | 0.04 | 85 | 1010.7 |
| 20260505090501 | 55 | 207 | 0.9 | 3.5 | 0.00 | 0.04 | 0.04 | 82 | 1010.7 |
| 20260505085958 | 53 | 191 | 1.7 | 2.6 | 0.00 | 0.04 | 0.04 | 90 | 1010.6 |
| 20260505085456 | 53 | 206 | 0.9 | 2.6 | 0.00 | 0.04 | 0.04 | 92 | 1010.8 |
| 20260505084954 | 53 | 206 | 0.0 | 0.9 | 0.00 | 0.04 | 0.04 | 92 | 1010.9 |
| 20260505084452 | 53 | 206 | 0.0 | 0.0 | 0.00 | 0.04 | 0.04 | 93 | 1011.2 |
| 20260505083949 | 54 | 206 | 0.0 | 0.0 | 0.00 | 0.04 | 0.04 | 91 | 1011.0 |
| 20260505083447 | 55 | 206 | 0.0 | 2.6 | 0.12 | 0.04 | 0.04 | 91 | 1010.9 |
| 20260505082943 | 55 | 205 | 0.0 | 2.6 | 0.05 | 0.03 | 0.03 | 87 | 1010.8 |
| 20260505082439 | 54 | 210 | 0.0 | 2.6 | 0.00 | 0.02 | 0.02 | 91 | 1011.3 |
| 20260505081936 | 55 | 263 | 0.0 | 0.9 | 0.00 | 0.02 | 0.02 | 88 | 1011.0 |
| 20260505081433 | 56 | 263 | 0.0 | 0.9 | 0.07 | 0.02 | 0.02 | 86 | 1010.9 |
| 20260505080929 | 56 | 273 | 0.9 | 2.6 | 0.12 | 0.02 | 0.02 | 83 | 1011.0 |
| 20260505080425 | 58 | 281 | 0.9 | 2.6 | 0.05 | 0.01 | 0.01 | 78 | 1011.0 |
| 20260505075921 | 59 | 283 | 3.5 | 4.3 | 0.00 | 0.00 | 0.00 | 68 | 1011.0 |
| 20260505075418 | 59 | 272 | 2.6 | 3.5 | 0.00 | 0.00 | 0.00 | 68 | 1010.7 |
| 20260505074915 | 59 | 282 | 4.3 | 4.3 | 0.00 | 0.00 | 0.00 | 68 | 1010.9 |
| 20260505074412 | 59 | 290 | 0.9 | 2.6 | 0.00 | 0.00 | 0.00 | 67 | 1010.6 |
| 20260505073909 | 59 | 289 | 2.6 | 4.3 | 0.00 | 0.00 | 0.00 | 67 | 1010.5 |
| 20260505073407 | 60 | 285 | 2.6 | 4.3 | 0.00 | 0.00 | 0.00 | 66 | 1010.2 |
| 20260505072904 | 60 | 283 | 2.6 | 3.5 | 0.00 | 0.00 | 0.00 | 65 | 1010.2 |
| 20260505072400 | 60 | 266 | 3.5 | 4.3 | 0.00 | 0.00 | 0.00 | 64 | 1010.5 |
| 20260505071856 | 60 | 272 | 2.6 | 3.5 | 0.00 | 0.00 | 0.00 | 64 | 1010.4 |
| 20260505071353 | 60 | 276 | 1.7 | 3.5 | 0.00 | 0.00 | 0.00 | 64 | 1010.6 |
| 20260505070851 | 60 | 264 | 3.5 | 4.3 | 0.00 | 0.00 | 0.00 | 64 | 1010.5 |
| 20260505070347 | 60 | 275 | 1.7 | 3.5 | 0.00 | 0.00 | 0.00 | 63 | 1010.5 |
| 20260505065842 | 60 | 272 | 2.6 | 3.5 | 0.00 | 0.00 | 0.00 | 63 | 1010.4 |
| 20260505065340 | 60 | 270 | 1.7 | 2.6 | 0.00 | 0.00 | 0.00 | 63 | 1010.6 |
| 20260505064836 | 60 | 269 | 2.6 | 3.5 | 0.00 | 0.00 | 0.00 | 62 | 1010.4 |
| 20260505064334 | 60 | 274 | 1.7 | 3.5 | 0.00 | 0.00 | 0.00 | 63 | 1010.6 |
| 20260505063832 | 59 | 274 | 2.6 | 3.5 | 0.00 | 0.00 | 0.00 | 64 | 1010.6 |
| 20260505063327 | 58 | 277 | 0.0 | 0.0 | 0.00 | 0.00 | 0.00 | 67 | 1010.6 |
| 20260505062824 | 59 | 277 | 0.0 | 0.0 | 0.00 | 0.00 | 0.00 | 66 | 1010.6 |
| 20260505062322 | 58 | 276 | 2.6 | 3.5 | 0.00 | 0.00 | 0.00 | 64 | 1010.6 |
| 20260505061818 | 58 | 276 | 0.0 | 0.0 | 0.00 | 0.00 | 0.00 | 67 | 1010.6 |
| 20260505061316 | 58 | 276 | 0.9 | 0.9 | 0.00 | 0.00 | 0.00 | 66 | 1010.6 |
| 20260505060814 | 58 | 276 | 0.9 | 2.6 | 0.00 | 0.00 | 0.00 | 64 | 1010.7 |
| 20260505060310 | 58 | 276 | 1.7 | 2.6 | 0.00 | 0.00 | 0.00 | 65 | 1010.7 |
| 20260505055806 | 57 | 276 | 0.0 | 0.9 | 0.00 | 0.00 | 0.00 | 66 | 1010.7 |
| 20260505055303 | 56 | 276 | 0.9 | 2.6 | 0.00 | 0.00 | 0.00 | 67 | 1010.6 |
| 20260505054800 | 56 | 276 | 0.0 | 0.0 | 0.00 | 0.00 | 0.00 | 66 | 1010.7 |
| 20260505054257 | 56 | 276 | 0.0 | 0.0 | 0.00 | 0.00 | 0.00 | 66 | 1010.7 |
| 20260505053755 | 57 | 276 | 0.0 | 0.0 | 0.00 | 0.00 | 0.00 | 65 | 1010.6 |
| 20260505053252 | 58 | 276 | 0.0 | 0.9 | 0.00 | 0.00 | 0.00 | 63 | 1010.6 |
| 20260505052749 | 59 | 276 | 1.7 | 2.6 | 0.00 | 0.00 | 0.00 | 60 | 1010.7 |
| 20260505052246 | 59 | 276 | 2.6 | 2.6 | 0.00 | 0.00 | 0.00 | 61 | 1010.7 |
| 20260505051743 | 59 | 276 | 0.9 | 2.6 | 0.00 | 0.00 | 0.00 | 60 | 1010.6 |
| 20260505051241 | 60 | 276 | 1.7 | 2.6 | 0.00 | 0.00 | 0.00 | 59 | 1010.5 |
| 20260505050738 | 61 | 274 | 1.7 | 3.5 | 0.00 | 0.00 | 0.00 | 57 | 1010.7 |
| 20260505050236 | 61 | 276 | 2.6 | 3.5 | 0.00 | 0.00 | 0.00 | 56 | 1010.6 |
| 20260505041700 | 61 | 288 | 1.7 | 2.6 | 0.00 | 0.00 | 0.00 | 56 | 1010.5 |
| 20260505041158 | 61 | 289 | 2.6 | 2.6 | 0.00 | 0.00 | 0.00 | 55 | 1010.4 |
| 20260505040654 | 62 | 283 | 3.5 | 3.5 | 0.00 | 0.00 | 0.00 | 53 | 1010.5 |
| 20260505040151 | 62 | 273 | 2.6 | 4.3 | 0.00 | 0.00 | 0.00 | 54 | 1010.4 |
| 20260505035647 | 62 | 281 | 4.3 | 4.3 | 0.00 | 0.00 | 0.00 | 53 | 1010.5 |
| 20260505035139 | 62 | 283 | 3.5 | 4.3 | 0.00 | 0.00 | 0.00 | 53 | 1010.3 |
| 20260505034635 | 62 | 290 | 2.6 | 4.3 | 0.00 | 0.00 | 0.00 | 53 | 1010.3 |
| 20260505034133 | 62 | 278 | 2.6 | 4.3 | 0.00 | 0.00 | 0.00 | 53 | 1010.2 |
| 20260505033628 | 62 | 286 | 3.5 | 4.3 | 0.00 | 0.00 | 0.00 | 53 | 1010.2 |
| 20260505033127 | 62 | 346 | 3.5 | 4.3 | 0.00 | 0.00 | 0.00 | 53 | 1010.3 |
| 20260505032625 | 62 | 282 | 3.5 | 4.3 | 0.00 | 0.00 | 0.00 | 53 | 1010.5 |
| 20260505032121 | 62 | 248 | 1.7 | 3.5 | 0.00 | 0.00 | 0.00 | 54 | 1010.4 |
| 20260505031619 | 61 | 257 | 0.9 | 2.6 | 0.00 | 0.00 | 0.00 | 56 | 1010.5 |
| 20260505031114 | 61 | 294 | 3.5 | 3.5 | 0.00 | 0.00 | 0.00 | 54 | 1010.3 |
| 20260505030612 | 60 | 243 | 1.7 | 3.5 | 0.00 | 0.00 | 0.00 | 56 | 1010.5 |
| 20260505030107 | 60 | 270 | 1.7 | 2.6 | 0.00 | 0.00 | 0.00 | 57 | 1010.3 |
| 20260505025603 | 59 | 347 | 0.9 | 2.6 | 0.00 | 0.00 | 0.00 | 58 | 1010.4 |
| 20260505025102 | 59 | 306 | 0.9 | 2.6 | 0.00 | 0.00 | 0.00 | 58 | 1010.4 |
| 20260505024559 | 59 | 304 | 0.9 | 0.9 | 0.00 | 0.00 | 0.00 | 57 | 1010.7 |
| 20260505024056 | 59 | 323 | 0.0 | 0.0 | 0.00 | 0.00 | 0.00 | 57 | 1010.7 |
| 20260505023554 | 60 | 301 | 0.9 | 0.9 | 0.00 | 0.00 | 0.00 | 57 | 1010.5 |
| 20260505023051 | 61 | 258 | 0.9 | 2.6 | 0.00 | 0.00 | 0.00 | 56 | 1010.7 |
| 20260505022548 | 61 | 301 | 1.7 | 3.5 | 0.00 | 0.00 | 0.00 | 52 | 1010.5 |
| 20260505022045 | 60 | 298 | 1.7 | 2.6 | 0.00 | 0.00 | 0.00 | 55 | 1010.5 |
| 20260505021542 | 59 | 259 | 0.9 | 0.9 | 0.00 | 0.00 | 0.00 | 59 | 1010.7 |
| 20260505021038 | 59 | 259 | 0.0 | 0.0 | 0.00 | 0.00 | 0.00 | 59 | 1010.8 |
| 20260505020533 | 59 | 336 | 0.0 | 2.6 | 0.00 | 0.00 | 0.00 | 57 | 1010.8 |
| 20260505020030 | 59 | 282 | 0.9 | 0.9 | 0.00 | 0.00 | 0.00 | 59 | 1010.8 |
| 20260505015527 | 59 | 296 | 0.0 | 0.9 | 0.00 | 0.00 | 0.00 | 58 | 1010.8 |
| 20260505015024 | 59 | 303 | 0.9 | 0.9 | 0.00 | 0.00 | 0.00 | 59 | 1010.8 |
| 20260505014521 | 58 | 323 | 0.0 | 0.0 | 0.00 | 0.00 | 0.00 | 59 | 1010.8 |
| 20260505014018 | 58 | 324 | 0.0 | 0.9 | 0.00 | 0.00 | 0.00 | 59 | 1010.6 |
| 20260505013515 | 59 | 218 | 0.0 | 0.0 | 0.00 | 0.00 | 0.00 | 59 | 1010.8 |
| 20260505013012 | 59 | 217 | 0.0 | 0.0 | 0.00 | 0.00 | 0.00 | 59 | 1010.8 |
| 20260505012510 | 59 | 217 | 0.0 | 0.0 | 0.00 | 0.00 | 0.00 | 59 | 1010.7 |
| 20260505012007 | 59 | 217 | 0.0 | 0.0 | 0.00 | 0.00 | 0.00 | 59 | 1010.4 |
| 20260505011503 | 59 | 217 | 0.0 | 0.0 | 0.00 | 0.00 | 0.00 | 58 | 1010.5 |
| 20260505011000 | 60 | 217 | 0.0 | 0.9 | 0.00 | 0.00 | 0.00 | 56 | 1010.5 |
| 20260505010455 | 60 | 217 | 0.0 | 0.9 | 0.00 | 0.00 | 0.00 | 55 | 1010.5 |
| 20260505005951 | 61 | 209 | 0.0 | 2.6 | 0.00 | 0.00 | 0.00 | 55 | 1010.3 |
| 20260505005448 | 61 | 319 | 0.0 | 0.0 | 0.00 | 0.00 | 0.00 | 55 | 1010.5 |
| 20260505004946 | 62 | 28 | 0.0 | 0.0 | 0.00 | 0.00 | 0.00 | 53 | 1010.3 |